Theta_e
315 313 310 309 309 309 309 307 305 305 306 307 306 306 306 306 306 306 306 307 306 306 307 309 308 308 311 315 323 330 333 337 340 340 339 341 340 338 338 337 331 330 326
314 313 311 310 311 311 310 308 306 306 306 306 307 307 308 307 307 307 307 306 306 308 307 307 310 309 309 309 312 318 329 332 335 340 340 341 342 340 338 337 336 337 334
316 313 312 312 313 310 309 307 306 307 308 308 308 308 308 308 308 308 309 309 310 311 310 308 308 311 311 311 311 312 316 327 333 335 338 340 341 341 339 340 338 337 330
316 314 314 314 313 312 309 307 307 308 308 308 308 308 309 310 309 309 310 310 311 311 312 314 313 313 314 312 312 313 314 314 329 333 335 336 340 339 339 339 338 335 329
316 315 314 314 313 311 309 308 308 308 308 308 308 309 310 310 311 311 311 312 313 314 315 314 314 315 314 314 313 313 316 316 319 333 333 336 339 339 339 338 338 338 335
315 314 313 313 311 310 309 308 308 308 309 309 310 311 311 311 311 312 313 312 314 314 314 315 314 313 315 314 315 317 321 320 319 330 333 335 337 334 337 337 335 337 335
315 314 313 312 310 309 308 308 308 308 308 310 311 310 310 311 312 312 312 313 314 314 314 314 314 315 320 318 318 318 324 327 325 328 332 332 332 331 333 334 336 335 334
315 313 312 310 309 308 307 307 308 308 309 309 309 309 310 311 311 309 311 314 314 313 312 314 317 319 322 324 324 323 327 329 326 329 331 331 332 328 329 331 331 330 330
313 312 310 309 308 307 307 307 307 308 307 308 308 309 310 311 310 310 310 313 311 311 311 313 316 319 320 323 324 327 326 329 334 333 333 332 327 330 329 329 328 327 326
312 311 308 307 307 307 307 306 306 306 306 307 307 308 309 310 310 310 308 309 310 310 311 314 316 318 320 323 327 327 329 329 332 332 330 330 331 330 329 328 324 323 322
310 308 307 306 306 307 305 305 305 306 306 306 307 308 309 309 309 309 310 309 308 311 312 316 317 318 320 322 324 326 328 329 333 331 330 329 327 326 326 324 323 324 325
308 307 305 305 305 305 304 305 306 306 306 306 307 308 309 309 308 308 309 309 309 311 312 315 317 317 320 321 320 321 321 325 322 327 327 326 325 322 322 322 323 323 324
306 305 305 305 304 305 305 306 305 305 306 306 306 306 307 308 308 307 308 308 309 310 312 315 317 318 319 320 319 320 319 320 318 322 322 321 321 321 320 320 320 321 322
305 305 305 306 306 306 306 306 305 305 305 305 305 306 306 306 306 306 307 308 309 311 312 314 316 316 318 316 316 317 316 317 317 318 319 320 317 317 317 317 315 315 317
305 306 306 306 306 305 305 305 304 304 304 305 306 306 306 305 305 306 307 310 311 312 312 314 315 313 315 315 314 314 312 311 313 314 314 313 313 314 313 313 314 311 311
306 306 306 306 306 305 305 304 304 304 304 307 306 307 306 307 307 308 309 310 312 312 313 312 315 312 312 312 311 312 309 308 309 310 311 311 312 312 311 311 311 311 312
306 306 306 306 306 304 305 305 304 305 305 307 306 307 306 306 307 308 308 309 311 312 310 313 312 311 310 310 310 309 308 307 306 307 309 308 310 310 311 310 311 312 313
305 305 306 306 306 305 304 305 304 304 304 304 304 304 305 305 306 306 307 308 310 312 313 311 311 311 310 309 308 308 306 306 306 305 306 307 308 310 310 311 312 312 313
305 305 306 306 307 306 305 305 304 304 304 303 304 304 303 303 303 305 306 306 308 312 313 312 311 310 308 308 307 307 306 306 305 305 305 305 306 308 308 309 311 312 313
306 306 306 306 306 305 304 305 305 305 304 303 304 304 303 302 302 303 305 306 308 310 312 312 310 309 308 307 308 307 306 305 305 305 306 306 306 307 307 308 308 308 308
307 307 306 306 305 304 304 304 304 305 305 305 304 304 303 302 302 302 304 305 307 310 311 311 310 309 308 307 307 307 306 305 305 304 305 306 307 308 308 308 309 309 308
306 306 306 305 304 304 303 304 304 305 305 305 304 304 303 302 302 302 303 305 307 310 310 310 310 308 308 308 307 307 306 306 304 303 305 304 305 307 306 307 307 307 307
305 306 305 304 304 304 303 303 304 305 305 305 304 303 302 302 302 302 303 307 307 308 310 311 310 309 309 308 308 307 307 306 305 304 304 303 304 303 303 305 305 306 306
304 304 305 303 303 304 303 303 303 304 304 305 304 302 302 302 303 304 308 308 309 309 311 312 311 309 310 309 308 308 306 307 306 304 304 303 303 302 300 300 301 302 301
304 304 303 303 302 302 303 303 303 303 304 303 302 302 302 303 305 307 308 309 308 310 311 311 310 310 310 309 309 308 307 307 306 304 303 303 301 298 295 296 297 300 301
301 302 301 301 301 300 302 303 303 302 302 301 301 302 303 305 306 307 308 308 309 310 310 310 310 310 309 308 308 308 308 307 307 306 304 301 299 296 294 294 295 298 299
Wind_Speed
21 22 22 23 24 28 30 32 33 34 36 38 38 37 36 35 34 34 34 32 30 30 30 30 32 32 33 36 38 36 32 31 32 34 34 34 34 34 35 32 29 28 30
19 21 20 19 25 29 30 32 33 33 34 35 36 35 36 37 36 35 34 35 33 30 30 31 31 32 33 33 35 40 38 34 32 34 34 32 34 35 35 32 30 29 30
18 19 19 23 29 32 34 35 33 33 34 33 33 33 35 34 34 31 30 29 29 30 28 27 28 30 31 32 32 34 40 40 34 33 35 32 30 33 32 31 30 28 28
20 21 23 28 33 35 37 35 34 33 32 31 32 31 30 29 28 27 28 27 27 27 25 20 24 28 30 30 30 32 33 39 38 36 33 34 30 29 34 32 32 27 25
21 23 26 30 34 37 38 35 33 30 29 28 28 28 27 26 24 23 23 23 20 20 19 23 24 25 28 29 28 29 32 33 37 34 35 32 33 34 35 34 32 30 28
23 24 29 32 35 37 37 36 33 27 26 26 25 25 23 17 18 15 16 22 20 16 18 20 23 25 25 26 25 27 28 31 33 35 33 32 30 25 29 28 33 34 32
25 28 31 33 36 36 36 33 30 27 26 23 25 24 23 19 11 19 26 18 15 15 19 21 24 24 24 22 24 27 28 27 29 33 28 28 28 28 28 27 29 29 28
27 28 31 34 34 36 34 29 26 25 23 21 22 24 16 20 11 28 23 12 19 18 24 22 21 22 21 20 22 24 24 25 25 27 27 27 27 24 23 24 27 29 27
27 30 33 34 34 32 28 25 22 21 23 23 20 14 10 9 29 26 24 17 28 25 27 19 19 19 20 20 19 19 21 21 22 22 24 26 23 17 17 18 21 21 22
30 32 32 34 33 27 25 24 22 22 22 22 21 14 13 19 19 19 32 29 29 30 23 20 18 16 19 18 15 13 13 16 17 17 19 17 16 17 14 12 14 17 18
30 31 32 33 28 24 23 24 20 20 18 19 17 17 16 18 17 23 25 33 35 27 25 15 15 14 13 9 5 8 10 16 25 23 28 22 16 13 11 10 10 7 8
31 30 28 25 21 18 19 18 18 17 16 16 16 14 13 16 19 20 25 29 31 33 26 20 11 11 9 6 12 7 7 14 10 26 21 15 12 9 8 8 8 9 8
22 20 20 16 14 14 14 16 19 19 17 16 16 15 13 15 16 19 22 26 28 30 24 19 11 8 9 5 6 7 4 3 6 3 4 4 4 4 4 6 7 8 9
14 16 14 12 14 16 20 19 21 18 18 16 17 15 15 14 14 18 20 22 27 21 22 21 10 2 1 6 4 4 4 5 4 3 4 4 2 2 5 5 5 5 7
13 14 11 14 15 15 16 18 20 19 18 15 14 14 14 14 14 17 20 16 16 15 21 14 11 9 1 4 5 5 10 11 7 8 8 8 4 2 0 1 1 1 1
13 14 13 13 13 14 12 16 20 19 14 13 14 12 12 11 11 14 14 12 12 11 9 17 5 10 12 8 6 6 15 18 16 11 9 8 8 7 4 4 3 2 2
14 14 12 12 12 13 12 12 17 20 14 13 15 14 14 14 11 13 13 13 12 9 12 10 12 5 5 8 8 10 12 15 17 12 8 9 9 7 5 5 6 5 5
13 12 12 12 11 13 14 11 13 16 17 18 17 16 18 18 17 14 15 13 13 11 9 11 13 6 8 5 5 11 14 14 14 13 12 10 10 7 7 7 6 5 5
12 12 12 11 11 13 14 10 13 13 14 14 16 17 19 19 17 15 14 14 11 9 5 8 13 9 0 6 10 10 12 12 14 14 15 14 12 10 8 9 9 9 12
12 11 11 10 11 13 13 10 10 11 12 13 15 17 20 20 18 15 14 14 9 7 4 6 12 7 11 11 8 9 13 14 15 14 14 14 12 11 11 14 16 16 17
12 10 11 10 11 13 14 13 12 13 14 13 14 19 23 23 17 13 12 13 7 5 5 7 11 14 14 10 6 6 12 15 16 14 14 14 14 14 15 15 15 16 16
11 9 12 12 15 14 15 15 15 12 10 14 13 20 25 24 15 9 7 10 5 3 6 6 10 13 13 10 4 7 8 7 11 14 17 19 19 19 20 18 18 19 19
13 11 12 15 16 14 19 18 15 10 9 12 14 23 25 23 13 6 6 7 3 4 7 5 7 14 12 6 6 7 7 11 14 12 19 21 20 22 21 20 20 20 19
15 14 13 13 17 16 17 17 15 13 11 12 16 21 22 18 12 9 7 5 4 8 6 7 5 9 10 4 7 5 6 9 12 12 15 19 17 20 19 21 20 19 19
16 16 16 17 18 18 16 16 14 13 10 14 17 17 16 14 12 8 7 7 10 11 13 11 10 12 11 9 5 3 6 6 12 13 13 16 18 20 19 20 21 20 20
17 16 16 16 17 18 12 8 8 11 11 12 13 10 11 12 12 10 8 12 14 14 12 15 16 14 12 9 7 7 8 5 7 8 11 11 10 13 19 19 20 20 20
Wind_Direction
349 347 342 340 338 337 332 326 320 314 310 308 307 307 307 307 305 302 299 296 295 290 281 275 269 270 267 264 261 258 259 259 253 249 248 251 248 247 252 260 257 253 250
346 339 335 336 336 335 332 328 323 316 311 308 306 305 305 305 306 305 302 297 295 292 284 276 274 271 270 268 264 259 255 258 258 253 252 250 248 243 248 257 258 255 252
338 334 329 331 336 338 335 331 327 321 315 312 308 306 304 306 305 306 304 299 295 294 295 285 279 277 272 268 267 263 257 253 254 254 251 247 250 240 246 253 253 254 251
333 332 330 329 335 337 334 329 325 321 317 313 309 307 309 309 308 304 299 298 297 295 298 291 282 281 280 274 267 264 262 254 249 250 251 249 241 237 242 251 251 248 247
326 327 330 331 333 332 332 326 322 320 318 317 312 313 313 311 308 303 297 299 308 307 297 300 293 286 285 282 273 264 259 259 246 246 246 244 243 248 248 254 248 244 237
323 325 329 330 328 328 327 324 321 319 319 319 317 318 320 324 326 319 316 316 318 311 300 301 299 292 288 281 271 261 257 258 244 240 246 245 247 251 252 250 251 243 242
322 321 323 323 323 322 323 323 320 319 322 327 332 328 335 330 334 329 326 322 315 321 319 311 305 300 296 279 266 255 254 254 244 239 241 237 238 237 241 241 239 237 237
312 315 320 320 320 319 322 320 318 319 323 332 327 330 329 336 317 326 334 329 334 330 328 318 315 308 298 290 277 255 255 246 243 231 233 229 228 224 234 233 231 237 241
313 317 317 318 319 321 322 322 321 319 324 316 317 322 323 318 326 331 333 321 325 325 325 315 317 320 308 293 283 262 250 238 211 226 220 210 217 232 229 225 234 241 246
311 313 316 319 320 319 321 323 322 317 318 314 317 319 311 317 319 325 323 329 328 326 332 321 325 310 326 312 296 267 234 225 218 217 215 206 198 203 195 209 228 236 244
309 313 316 318 315 317 318 322 323 321 322 318 318 316 317 316 323 325 317 325 329 341 345 346 338 315 327 5 346 223 213 197 180 164 151 167 183 201 197 211 218 228 239
313 318 319 318 318 321 327 334 336 336 329 325 321 315 307 318 316 320 316 319 328 331 347 345 324 319 305 327 18 48 80 141 100 143 162 183 191 187 190 211 225 239 249
323 337 342 351 355 347 340 337 339 330 327 327 327 324 311 303 309 313 313 316 321 327 341 349 344 303 284 309 347 2 37 85 344 332 104 183 189 203 230 243 242 250 252
328 334 346 7 350 336 338 339 343 340 333 324 321 316 323 321 312 313 314 313 317 323 335 329 325 73 312 75 55 357 344 343 14 259 241 232 208 230 244 226 241 247 244
331 336 331 341 346 346 348 357 350 345 335 337 333 324 321 325 309 307 309 312 315 310 323 329 357 328 12 62 64 70 72 72 70 80 88 94 105 103 156 191 187 277 251
331 336 335 336 339 346 353 358 357 352 356 6 4 2 349 335 323 321 325 332 333 326 324 336 323 133 115 113 98 94 98 86 79 76 79 84 84 70 66 59 68 77 53
326 327 329 333 339 348 349 355 358 7 10 359 1 4 8 8 359 351 344 345 344 354 340 346 149 82 149 112 94 91 97 93 88 80 77 73 74 70 56 60 62 62 59
331 324 327 333 334 343 345 343 357 6 11 19 17 6 12 9 8 355 352 345 348 355 4 143 133 116 146 104 89 85 83 80 76 70 76 75 64 51 45 59 58 50 50
338 335 330 334 331 333 340 348 349 355 359 4 0 356 357 354 358 358 348 347 353 358 26 193 150 124 141 120 94 74 71 70 71 65 65 69 72 76 70 49 42 65 80
338 338 344 335 335 337 337 334 329 333 341 347 346 354 353 349 347 346 352 357 349 12 64 203 165 161 151 119 67 77 75 70 69 69 66 67 70 73 67 59 66 72 76
346 347 343 342 339 340 342 338 322 328 328 335 336 347 351 347 341 336 344 353 7 49 133 183 165 146 143 118 69 73 78 76 72 70 72 71 74 79 80 76 77 71 65
347 343 345 344 346 347 351 344 331 328 324 322 326 341 348 346 346 343 339 346 16 111 133 159 175 158 153 117 80 81 43 62 69 62 77 78 82 85 81 75 70 67 61
344 330 337 344 345 350 350 346 348 338 318 326 336 343 345 346 359 0 346 355 28 139 127 147 173 178 151 85 120 83 55 76 80 83 89 82 76 72 69 74 70 62 57
335 330 326 325 327 326 332 333 342 345 331 319 342 342 350 360 15 18 10 22 62 110 111 130 160 175 135 114 114 81 78 63 77 95 94 83 76 70 67 64 64 63 57
335 336 330 324 320 315 313 322 328 341 355 342 338 347 360 8 16 33 40 88 97 103 99 114 116 127 135 117 103 59 77 53 77 96 99 88 87 80 67 66 65 66 60
336 329 325 328 330 336 310 311 329 352 350 345 353 11 10 25 39 44 86 107 116 109 110 120 121 124 121 117 106 100 45 65 54 82 110 90 90 85 69 65 66 62 58